Starlink 11448

operational
NORAD ID: 63005 Int'l Des: 2025-032 Owner: SPXS Country: US Constellation: starlink
LEOCIRCULAR

Über Starlink 11448

Beschreibung wird geladen...

Live-Position

3D-Globus wird geladen...

Nächste Überflüge

Höhenverlauf

Altitude vs Time

uPlot chart will show altitude changes over time

Zweizeiliger Elementsatz

1 63005U 25032A 25260.14453732 .00166435 00000-0 12745-2 0 9996
2 63005 42.9998 161.0589 0001345 280.3376 79.7340 15.70845111 34931
Epoch: 17. Sept. 2025 • Age: 11 hours

Aktueller Status

Höhe 355.5 km
Geschwindigkeit 7.70 km/s
Subsatellitenpunkt 9.21°N, 108.62°E
Startdatum 15. Feb. 2025
Alter 0.5 years
Typ internet

Technische Details

Klassifizierung Payload
Masse 960.00 kg
Trockenmasse 910.00 kg
Gesamtmasse 960.00 kg
Länge 0.30 m
Durchmesser 4.10 m
Spannweite 29.00 m
Form Box + pan
Hersteller SPXS
Bus-Typ Starlink V2MD
Phasenstatus In Orbit
Besitzer/Staat SPXS/US

Große Konstellationen

Loading constellations...